Airfield :
LOGIN :

Register | Disclaimer

   EN    FR    IT 

 










Legend :    VFR   Marginal VFR   IFR   Intensive IFR   Very Intensive IFR
Visi :
Ceiling :
>= 8 km
>= 3000ft
5 to 8 km
1000 to 3000 ft
1500m to 5 km
500 to 1000 ft
800 to 1500m
200 to 500 ft
< 800m
< 200 ft
Symbols :   Thunderstorms  Fog  Heavy snow  Heavy precipitations  Wind > 20 kt
SIGMETs :     Misc.  Thunderstorms  Icing  Turbulence  Mountain Waves  Volcanic Ashes






- Airport Elevation : 285 ft
- IATA code : OZP


LEMO - Sevilla Moron

CURRENT METAR :
  • 260030Z 20009KT 170V230 CAVOK 22/17 Q1013 NOSIG

EXPIRED METARs :
  • 260000Z 20009KT 170V230 CAVOK 23/17 Q1013 NOSIG
  • 252330Z 21009KT 170V240 CAVOK 23/17 Q1013 NOSIG
  • 252300Z 21009KT 170V240 CAVOK 24/17 Q1013 NOSIG
  • 252230Z 21008KT 170V250 CAVOK 24/16 Q1013 NOSIG
  • 252200Z 22009KT 190V260 CAVOK 25/16 Q1013 NOSIG

TAF TAF LEMO
Valid from the 25 at 21:00 until the 26 at 21:00 UTC


252000Z 2521/2621 23012KT CAVOK TX35/2615Z TN20/2606Z
BECMG 2600/2603 30006KT
BECMG 2613/2615 24013KT



MET'MAP, your aeronautical weather chart ! - Copyright ORBIFLY December 2007 - Disclaimer

ORBIFLY MET'MAP TEAM :

Programming & Development : Alexandra Zaïnal
Concept & original design : Baudouin d'Aumeries
Assistance for programming : Marc-Olivier Méhu
Technical & hardware support : Manuel Goepfert

Contact : metmap@orbifly.com




SOURCES & CREDITS :

   NOAA